Date String (YYYY-MM-DD hh:mm:ss) UTC,Instrument flags,absolute air pressure of the measurement (hPa),sample flow rate (lpm),inlet stack bypass flow (lpm),air temperature of the measurement (°C),ambient temperature measured by the external sensor (°C),aerosol sample conditioner tube jacket temperature (°C),OPC LED temperature (°C),internal box temperature (°C),relative humidity of the measurement (%),span deviation,mass concentration of particles derived from Lorenz-Mie calculation of OPC scattering (μg/m³),mass concentration of particles derived from Lorenz-Mie calculation of OPC scattering (μg/m³),mass concentration of particles derived from Lorenz-Mie calculation of OPC scattering (μg/m³)
DateTimeUTC,F1_M11,P_M11,Q1_M11,Q2_M11,T1_M11,T2_M11,T3_M11,T4_M11,T5_M11,U1_M11,ZSPAN_M11,X0_M11,X2_M11,X1_M11
2024-05-03 01:00:00,SystemResetWarning,0824.9,5.00,000.00,025.7,025.3,000.0,033.9,027.6,013.9,0000.0,0014.04,0004.32,0002.48
2024-05-03 01:01:00,SystemResetWarning,0825.0,5.00,000.00,025.7,025.3,000.0,034.0,027.6,013.7,0000.0,0013.09,0004.32,0002.47
2024-05-03 01:02:00,SystemResetWarning,0824.9,4.98,000.00,025.6,023.6,000.0,034.0,026.6,014.1,0000.0,0012.96,0004.34,0002.47
2024-05-03 01:03:00,SystemResetWarning,0824.9,5.01,000.00,025.1,022.1,000.0,034.0,025.8,014.7,0000.0,0012.55,0004.36,0002.47
2024-05-03 01:04:00,SystemResetWarning,0824.9,5.01,000.00,024.9,022.2,000.0,033.9,025.7,014.9,0000.0,0013.89,0004.45,0002.51
2024-05-03 01:05:00,SystemResetWarning,0825.0,4.99,000.00,024.9,022.5,000.0,033.7,026.0,015.0,0000.0,0014.16,0004.42,0002.52
2024-05-03 01:06:00,SystemResetWarning,0825.0,5.01,000.00,024.9,022.9,000.0,033.6,026.2,014.8,0000.0,0014.00,0004.32,0002.53
2024-05-03 01:07:00,SystemResetWarning,0825.0,5.01,000.00,024.9,023.2,000.0,033.6,026.4,014.9,0000.0,0013.87,0004.36,0002.55
2024-05-03 01:08:00,SystemResetWarning,0825.0,5.00,000.00,024.9,023.5,000.0,033.5,026.6,014.9,0000.0,0014.18,0004.33,0002.55
2024-05-03 01:09:00,SystemResetWarning,0825.0,5.00,000.00,025.0,023.8,000.0,033.5,026.6,015.0,0000.0,0014.59,0004.28,0002.55
2024-05-03 01:10:00,SystemResetWarning,0825.0,5.00,000.00,025.0,024.0,000.0,033.5,026.7,014.9,0000.0,0014.25,0004.27,0002.56
2024-05-03 01:11:00,SystemResetWarning,0825.1,5.00,000.00,025.1,024.2,000.0,033.5,026.8,015.0,0000.0,0014.62,0004.26,0002.56
2024-05-03 01:12:00,SystemResetWarning,0825.1,5.00,000.00,025.1,024.3,000.0,033.5,026.9,015.0,0000.0,0015.10,0004.25,0002.57
2024-05-03 01:13:00,SystemResetWarning,0825.1,5.00,000.00,025.2,024.4,000.0,033.5,026.9,014.8,0000.0,0015.89,0004.25,0002.58
2024-05-03 01:14:00,SystemResetWarning,0825.1,5.00,000.00,025.2,024.5,000.0,033.5,027.0,014.8,0000.0,0016.83,0004.26,0002.58
2024-05-03 01:15:00,SystemResetWarning,0825.1,5.01,000.00,025.2,024.6,000.0,033.5,027.1,014.9,0000.0,0016.26,0004.20,0002.56
2024-05-03 01:16:00,SystemResetWarning,0825.1,5.00,000.00,025.3,024.7,000.0,033.5,027.1,014.7,0000.0,0014.89,0004.20,0002.54
2024-05-03 01:17:00,SystemResetWarning,0825.2,4.99,000.00,025.3,024.8,000.0,033.5,027.2,014.7,0000.0,0014.92,0004.27,0002.53
2024-05-03 01:18:00,SystemResetWarning,0825.2,5.00,000.00,025.4,024.9,000.0,033.6,027.2,014.7,0000.0,0014.92,0004.26,0002.51
2024-05-03 01:19:00,SystemResetWarning,0825.3,4.99,000.00,025.4,024.9,000.0,033.6,027.3,014.8,0000.0,0014.78,0004.26,0002.50
2024-05-03 01:20:00,SystemResetWarning,0825.3,5.00,000.00,025.5,025.0,000.0,033.6,027.3,014.9,0000.0,0014.64,0004.28,0002.50
2024-05-03 01:21:00,SystemResetWarning,0825.2,5.01,000.00,025.5,025.1,000.0,033.6,027.4,014.7,0000.0,0015.25,0004.31,0002.50
2024-05-03 01:22:00,SystemResetWarning,0825.2,5.01,000.00,025.6,025.1,000.0,033.7,027.4,014.6,0000.0,0015.02,0004.31,0002.49
2024-05-03 01:23:00,SystemResetWarning,0825.2,4.99,000.00,025.6,025.2,000.0,033.7,027.4,014.6,0000.0,0014.63,0004.29,0002.47
2024-05-03 01:24:00,SystemResetWarning,0825.2,4.99,000.00,025.6,025.2,000.0,033.7,027.5,014.5,0000.0,0013.37,0004.22,0002.45
2024-05-03 01:25:00,SystemResetWarning,0825.2,5.01,000.00,025.7,025.2,000.0,033.8,027.5,014.4,0000.0,0012.53,0004.18,0002.46
2024-05-03 01:26:00,SystemResetWarning,0825.2,4.99,000.00,025.7,024.8,000.0,033.8,027.2,014.4,0000.0,0012.13,0004.17,0002.46
2024-05-03 01:27:00,SystemResetWarning,0825.2,5.01,000.00,025.3,022.6,000.0,033.9,026.2,014.7,0000.0,0013.60,0004.19,0002.45
2024-05-03 01:28:00,SystemResetWarning,0825.2,5.02,000.00,025.0,022.1,000.0,033.8,025.8,015.0,0000.0,0014.14,0004.11,0002.44
2024-05-03 01:29:00,SystemResetWarning,0825.2,4.99,000.00,024.9,022.3,000.0,033.7,025.8,015.2,0000.0,0014.10,0004.16,0002.45
2024-05-03 01:30:00,SystemResetWarning,0825.3,5.00,000.00,024.8,022.7,000.0,033.6,026.1,015.3,0000.0,0014.21,0004.18,0002.45
2024-05-03 01:31:00,SystemResetWarning,0825.3,5.00,000.00,024.9,023.0,000.0,033.5,026.3,015.4,0000.0,0014.70,0004.19,0002.44
2024-05-03 01:32:00,SystemResetWarning,0825.2,5.00,000.00,024.9,023.4,000.0,033.4,026.4,015.3,0000.0,0015.00,0004.17,0002.43
2024-05-03 01:33:00,SystemResetWarning,0825.3,5.00,000.00,024.9,023.6,000.0,033.4,026.6,015.3,0000.0,0015.35,0004.19,0002.44
2024-05-03 01:34:00,SystemResetWarning,0825.2,4.99,000.00,024.9,023.9,000.0,033.4,026.6,015.2,0000.0,0017.02,0004.23,0002.45
2024-05-03 01:35:00,SystemResetWarning,0825.3,4.99,000.00,025.0,024.0,000.0,033.4,026.7,015.3,0000.0,0017.75,0004.26,0002.43
2024-05-03 01:36:00,SystemResetWarning,0825.3,5.01,000.00,025.0,024.2,000.0,033.4,026.8,015.2,0000.0,0017.99,0004.29,0002.41
2024-05-03 01:37:00,SystemResetWarning,0825.3,5.01,000.00,025.1,024.3,000.0,033.4,026.8,015.2,0000.0,0017.81,0004.31,0002.40
2024-05-03 01:38:00,SystemResetWarning,0825.3,5.00,000.00,025.1,024.5,000.0,033.4,026.9,015.3,0000.0,0017.62,0004.30,0002.38
2024-05-03 01:39:00,SystemResetWarning,0825.3,4.99,000.00,025.2,024.6,000.0,033.4,027.0,015.2,0000.0,0016.97,0004.34,0002.38
2024-05-03 01:40:00,SystemResetWarning,0825.4,4.99,000.00,025.2,024.7,000.0,033.4,027.0,015.2,0000.0,0017.35,0004.35,0002.38
2024-05-03 01:41:00,SystemResetWarning,0825.4,5.00,000.00,025.3,024.7,000.0,033.4,027.1,015.2,0000.0,0017.38,0004.34,0002.35
2024-05-03 01:42:00,SystemResetWarning,0825.3,5.02,000.00,025.3,024.8,000.0,033.5,027.1,015.1,0000.0,0016.45,0004.32,0002.35
2024-05-03 01:43:00,SystemResetWarning,0825.3,5.01,000.00,025.3,024.9,000.0,033.5,027.2,015.0,0000.0,0016.31,0004.34,0002.35
2024-05-03 01:44:00,SystemResetWarning,0825.3,5.00,000.00,025.4,024.9,000.0,033.5,027.2,015.0,0000.0,0015.97,0004.34,0002.34
2024-05-03 01:45:00,SystemResetWarning,0825.3,5.00,000.00,025.4,025.0,000.0,033.6,027.3,015.0,0000.0,0014.79,0004.32,0002.34
2024-05-03 01:46:00,SystemResetWarning,0825.3,4.99,000.00,025.5,025.0,000.0,033.6,027.3,015.0,0000.0,0014.07,0004.34,0002.35
2024-05-03 01:47:00,SystemResetWarning,0825.4,5.00,000.00,025.5,025.1,000.0,033.6,027.4,015.0,0000.0,0014.49,0004.32,0002.35
2024-05-03 01:48:00,SystemResetWarning,0825.4,5.01,000.00,025.6,025.1,000.0,033.7,027.4,014.9,0000.0,0014.45,0004.33,0002.37
2024-05-03 01:49:00,SystemResetWarning,0825.4,5.01,000.00,025.6,025.2,000.0,033.7,027.4,014.8,0000.0,0013.53,0004.30,0002.39
2024-05-03 01:50:00,SystemResetWarning,0825.4,5.00,000.00,025.6,025.2,000.0,033.7,027.5,014.7,0000.0,0013.52,0004.27,0002.41
2024-05-03 01:51:00,SystemResetWarning,0825.4,4.99,000.00,025.7,025.2,000.0,033.8,027.5,014.7,0000.0,0013.16,0004.18,0002.39
2024-05-03 01:52:00,SystemResetWarning,0825.4,4.99,000.00,025.7,024.9,000.0,033.8,027.3,014.7,0000.0,0013.29,0004.16,0002.39
2024-05-03 01:53:00,SystemResetWarning,0825.4,5.00,000.00,025.4,022.6,000.0,033.9,026.2,014.9,0000.0,0013.37,0004.14,0002.37
2024-05-03 01:54:00,SystemResetWarning,0825.4,5.01,000.00,025.0,021.8,000.0,033.8,025.7,015.2,0000.0,0013.20,0004.09,0002.35
2024-05-03 01:55:00,SystemResetWarning,0825.4,5.01,000.00,024.8,022.1,000.0,033.7,025.7,015.4,0000.0,0013.59,0004.08,0002.35
2024-05-03 01:56:00,SystemResetWarning,0825.4,4.99,000.00,024.7,022.4,000.0,033.6,026.0,015.5,0000.0,0014.11,0004.10,0002.37
2024-05-03 01:57:00,SystemResetWarning,0825.4,4.99,000.00,024.8,022.8,000.0,033.5,026.2,015.5,0000.0,0014.78,0004.13,0002.38
2024-05-03 01:58:00,SystemResetWarning,0825.4,5.00,000.00,024.8,023.1,000.0,033.4,026.4,015.4,0000.0,0014.44,0004.23,0002.38
2024-05-03 01:59:00,SystemResetWarning,0825.4,5.02,000.00,024.8,023.4,000.0,033.3,026.5,015.4,0000.0,0014.40,0004.21,0002.36
